FW7847 Weather Reports


time (UTC)temp
F
wind
direction
speed
knots
gust
knots
rain 1hr
in
rain 24hr
in
rain mn
in
humidity
%
barometer
mb
20260502160312 43 223 4.3 7.8 0.00 0.00 0.00 51 1019.2
20260502152241 41 257 3.5 13.0 0.00 0.00 0.00 54 1019.1
20260502151738 42 304 6.1 10.4 0.00 0.00 0.00 53 1019.2
20260502151235 42 327 7.8 13.0 0.00 0.00 0.00 53 1019.2
20260502150733 41 292 10.4 13.0 0.00 0.00 0.00 54 1019.3
20260502150230 41 321 6.1 10.4 0.00 0.00 0.00 55 1019.2
20260502130618 39 282 10.4 18.2 0.00 0.00 0.00 71 1019.3
20260502130116 39 332 4.3 12.2 0.00 0.00 0.00 72 1019.3
20260502123601 38 355 9.6 16.5 0.00 0.00 0.00 74 1019.1
20260502123058 38 319 12.2 14.8 0.00 0.00 0.00 74 1019.3
20260502122554 38 292 7.8 13.0 0.00 0.00 0.00 74 1019.1
20260502122051 37 125 7.8 22.6 0.00 0.00 0.00 74 1019.1
20260502121549 38 290 5.2 14.8 0.00 0.00 0.00 75 1019.0
20260502121046 37 242 2.6 13.0 0.00 0.00 0.00 75 1018.9
20260502120542 37 268 5.2 6.1 0.00 0.00 0.00 76 1019.2
20260502115538 36 231 1.7 2.6 0.00 0.00 0.00 79 1018.9
20260502115033 35 255 3.5 8.7 0.00 0.00 0.00 79 1019.1
20260502114530 35 286 4.3 6.1 0.00 0.00 0.00 80 1019.0
20260502114027 35 259 2.6 4.3 0.00 0.00 0.00 81 1019.1
20260502113524 35 273 2.6 4.3 0.00 0.00 0.00 82 1019.1
20260502113023 34 233 0.0 2.6 0.00 0.00 0.00 84 1018.9
20260502112520 34 262 1.7 6.1 0.00 0.00 0.00 85 1018.7
20260502112018 34 286 2.6 4.3 0.00 0.00 0.00 86 1018.8
20260502111515 33 261 2.6 4.3 0.00 0.00 0.00 88 1018.7
20260502111012 33 247 1.7 2.6 0.00 0.00 0.00 90 1018.6
20260502110509 33 230 1.7 1.7 0.00 0.00 0.00 91 1018.8
20260502110007 33 234 0.0 1.7 0.00 0.00 0.00 92 1018.8
20260502105504 33 241 1.7 2.6 0.00 0.00 0.00 92 1018.8
20260502105001 33 243 1.7 4.3 0.00 0.00 0.00 93 1018.9
20260502104459 32 241 2.6 2.6 0.00 0.00 0.00 94 1018.6
20260502103956 32 236 1.7 2.6 0.00 0.00 0.00 94 1018.8
20260502103454 31 226 1.7 1.7 0.00 0.00 0.00 94 1018.6
20260502102950 31 233 0.9 1.7 0.00 0.00 0.00 93 1018.7
20260502102448 31 229 0.0 0.0 0.00 0.00 0.00 93 1018.7
20260502101944 31 231 0.0 0.0 0.00 0.00 0.00 93 1018.5
20260502101443 31 226 0.0 0.0 0.00 0.00 0.00 93 1018.6
20260502100941 32 228 0.0 0.0 0.00 0.00 0.00 92 1018.4
20260502100439 32 229 0.0 0.0 0.00 0.00 0.00 92 1018.5
20260502091414 34 228 0.0 0.0 0.00 0.00 0.00 89 1018.3
20260502090911 34 228 0.0 0.0 0.00 0.00 0.00 88 1018.1
20260502090408 34 228 0.0 0.0 0.00 0.00 0.00 88 1018.4
20260502071302 37 30 2.6 4.3 0.00 0.00 0.00 84 1017.9
20260502070801 37 206 0.9 4.3 0.00 0.00 0.00 83 1018.0
20260502070258 38 173 2.6 4.3 0.00 0.00 0.00 83 1018.1
20260502065757 38 177 0.9 1.7 0.00 0.00 0.00 83 1017.9
20260502065254 38 179 1.7 2.6 0.00 0.00 0.00 82 1017.9
20260502064752 38 158 2.6 2.6 0.00 0.00 0.00 83 1018.1
20260502064250 38 230 0.0 1.7 0.00 0.00 0.00 82 1018.3
20260502063747 38 185 1.7 2.6 0.00 0.00 0.00 82 1018.0
20260502063245 38 221 0.0 0.0 0.00 0.00 0.00 82 1018.1
20260502062741 38 199 0.9 1.7 0.00 0.00 0.00 82 1018.1
20260502062239 38 219 0.0 1.7 0.00 0.00 0.00 82 1018.1
20260502061738 38 225 0.9 1.7 0.00 0.00 0.00 84 1018.1
20260502061235 38 228 0.0 0.0 0.00 0.00 0.00 84 1018.2
20260502060730 38 224 0.0 0.0 0.00 0.00 0.00 83 1018.4
20260502060226 38 230 0.0 0.0 0.00 0.00 0.00 84 1018.2
20260502055724 38 231 0.0 0.0 0.00 0.00 0.00 83 1018.2
20260502055222 38 229 0.0 0.0 0.00 0.00 0.00 82 1018.2
20260502054721 38 227 0.0 0.0 0.00 0.00 0.00 82 1018.1
20260502054218 38 221 0.0 1.7 0.00 0.00 0.00 82 1018.3
20260502053715 38 225 0.0 0.0 0.00 0.00 0.00 81 1018.2
20260502053212 38 219 0.0 1.7 0.00 0.00 0.00 81 1018.3
20260502052710 38 231 0.0 0.0 0.00 0.00 0.00 81 1018.4
20260502052209 38 232 1.7 1.7 0.00 0.00 0.00 80 1018.4
20260502051706 38 224 0.0 0.0 0.00 0.00 0.00 79 1018.4
20260502051204 38 221 0.0 1.7 0.00 0.00 0.00 79 1018.6
20260502050700 38 203 0.0 1.7 0.00 0.00 0.00 79 1018.4
20260502050157 38 225 0.0 1.7 0.00 0.00 0.00 79 1018.4
20260502045653 38 228 0.0 1.7 0.00 0.00 0.00 79 1018.2
20260502045151 39 223 0.9 1.7 0.00 0.00 0.00 79 1018.3
20260502044647 39 206 1.7 2.6 0.00 0.00 0.00 78 1018.1
20260502044143 39 223 0.9 1.7 0.00 0.00 0.00 78 1018.2
20260502043642 39 224 0.0 0.0 0.00 0.00 0.00 79 1018.0
20260502043139 39 229 0.9 1.7 0.00 0.00 0.00 78 1018.0
20260502042638 39 97 0.9 2.6 0.00 0.00 0.00 78 1017.9
20260502042135 39 189 1.7 6.1 0.00 0.00 0.00 77 1018.0
20260502041633 39 183 2.6 4.3 0.00 0.00 0.00 78 1017.8
20260502041130 39 177 2.6 4.3 0.00 0.00 0.00 77 1017.8
20260502040626 39 142 4.3 7.8 0.00 0.00 0.00 77 1017.8
20260502040124 39 180 1.7 4.3 0.00 0.00 0.00 77 1017.6
20260502035620 39 335 2.6 7.8 0.00 0.00 0.00 77 1017.9
20260502035117 40 110 3.5 4.3 0.00 0.00 0.00 76 1017.7
20260502034615 40 169 1.7 4.3 0.00 0.00 0.00 73 1017.7
20260502034113 40 246 1.7 2.6 0.00 0.00 0.00 71 1017.5
20260502033611 41 242 0.0 4.3 0.00 0.00 0.00 72 1017.6
20260502033108 41 235 0.9 4.3 0.00 0.00 0.00 71 1017.8
20260502032603 41 308 2.6 4.3 0.00 0.00 0.00 71 1017.7
20260502032100 41 235 0.9 4.3 0.00 0.00 0.00 71 1017.5
20260502031558 41 179 0.0 2.6 0.00 0.00 0.00 71 1017.7
20260502031055 41 228 2.6 7.8 0.00 0.00 0.00 70 1017.6
20260502030550 41 346 6.1 7.8 0.00 0.00 0.00 70 1017.6
20260502030047 41 32 2.6 8.7 0.00 0.00 0.00 70 1017.7
20260502025544 41 109 3.5 7.8 0.00 0.00 0.00 70 1017.6
20260502025042 41 348 3.5 6.1 0.00 0.00 0.00 69 1017.4
20260502024539 42 246 4.3 7.8 0.00 0.00 0.00 66 1017.6
20260502024037 42 319 3.5 4.3 0.00 0.00 0.00 67 1017.4
20260502023534 42 280 4.3 6.1 0.00 0.00 0.00 66 1017.4
20260502023032 42 302 5.2 7.8 0.00 0.00 0.00 67 1017.5
20260502022528 42 233 1.7 2.6 0.00 0.00 0.00 68 1017.5
20260502022026 42 242 2.6 4.3 0.00 0.00 0.00 68 1017.5
20260502021523 42 251 2.6 4.3 0.00 0.00 0.00 68 1017.3
20260502021020 42 229 1.7 2.6 0.00 0.00 0.00 67 1017.2
20260502020518 42 255 2.6 4.3 0.00 0.00 0.00 67 1017.1
20260502020014 42 242 0.9 4.3 0.00 0.00 0.00 67 1017.2
20260502015512 42 267 2.6 4.3 0.00 0.00 0.00 67 1017.1
20260502015008 42 236 1.7 6.1 0.00 0.00 0.00 67 1017.4
20260502014505 42 284 4.3 6.1 0.00 0.00 0.00 67 1017.3
20260502014002 42 261 2.6 6.1 0.00 0.00 0.00 67 1017.1
20260502013457 42 274 5.2 6.1 0.00 0.00 0.00 67 1017.1
20260502012954 42 237 2.6 6.1 0.00 0.00 0.00 68 1017.1
20260502012452 42 234 0.9 4.3 0.00 0.00 0.00 68 1017.0
20260502011950 42 251 5.2 7.8 0.00 0.00 0.00 67 1016.8
20260502011445 43 274 2.6 4.3 0.00 0.00 0.00 68 1017.0
20260502010942 43 258 2.6 6.1 0.00 0.00 0.00 67 1016.8
20260502010438 42 249 1.7 2.6 0.00 0.00 0.00 69 1016.7
20260502005934 42 239 3.5 6.1 0.00 0.00 0.00 68 1016.6
20260502005432 42 233 0.9 1.7 0.00 0.00 0.00 68 1016.7
20260502004931 42 234 0.0 2.6 0.00 0.00 0.00 67 1016.6
20260502004427 43 242 2.6 4.3 0.00 0.00 0.00 67 1016.8
20260502003924 43 245 2.6 4.3 0.00 0.00 0.00 67 1016.7
20260502003421 43 252 2.6 4.3 0.00 0.00 0.00 67 1016.7
20260502002917 43 238 3.5 7.8 0.00 0.00 0.00 67 1016.8
20260502002415 43 234 0.9 2.6 0.00 0.00 0.00 67 1016.6
20260502001912 43 237 1.7 4.3 0.00 0.00 0.00 66 1016.8
20260502001410 43 311 6.1 7.8 0.00 0.00 0.00 65 1016.5
20260502000907 43 241 2.6 6.1 0.00 0.00 0.00 67 1016.4
20260502000405 43 290 4.3 8.7 0.00 0.00 0.00 66 1016.4
20260501235901 43 235 1.7 7.8 0.00 0.00 0.00 66 1016.5
20260501235357 43 271 7.0 8.7 0.00 0.00 0.00 66 1016.3
20260501234852 44 250 4.3 8.7 0.00 0.00 0.00 66 1016.4
20260501234349 44 273 6.1 8.7 0.00 0.00 0.00 66 1016.5
20260501233847 44 282 10.4 13.0 0.00 0.00 0.00 66 1016.1
20260501233344 44 228 0.0 13.0 0.00 0.00 0.00 67 1016.0
20260501232840 44 272 3.5 6.1 0.00 0.00 0.00 67 1016.1
20260501232338 44 237 2.6 10.4 0.00 0.00 0.00 67 1016.4
20260501231835 44 262 6.1 10.4 0.00 0.00 0.00 66 1016.3
20260501231333 44 266 3.5 8.7 0.00 0.00 0.00 67 1016.0
20260501230832 44 277 5.2 7.8 0.00 0.00 0.00 66 1016.1
20260501230330 44 287 5.2 12.2 0.00 0.00 0.00 66 1016.0
20260501225827 44 248 4.3 7.8 0.00 0.00 0.00 66 1016.4
20260501225325 44 308 7.8 8.7 0.00 0.00 0.00 66 1016.3
20260501224821 44 283 9.6 12.2 0.00 0.00 0.00 67 1016.1
20260501224318 44 282 10.4 13.0 0.00 0.00 0.00 67 1016.5
20260501223814 44 344 8.7 10.4 0.00 0.00 0.00 68 1016.4
20260501223310 44 208 2.6 10.4 0.00 0.00 0.00 67 1016.5
20260501222806 44 257 5.2 7.8 0.00 0.00 0.00 67 1016.1
20260501222305 44 213 0.9 6.1 0.00 0.00 0.00 66 1016.1
20260501221800 44 275 7.0 12.2 0.00 0.00 0.00 65 1016.1
20260501221258 45 249 4.3 7.8 0.00 0.00 0.00 64 1016.0
20260501220756 45 283 7.8 10.4 0.00 0.00 0.00 64 1015.9
20260501220252 45 76 2.6 12.2 0.00 0.00 0.00 65 1016.0
20260501215749 45 281 7.0 13.0 0.00 0.00 0.00 64 1015.8
20260501215245 45 291 7.8 12.2 0.00 0.00 0.00 63 1015.9
20260501214740 45 285 7.8 12.2 0.00 0.00 0.00 61 1015.9
20260501214236 45 248 8.7 10.4 0.00 0.00 0.00 61 1015.6
20260501213732 45 269 4.3 12.2 0.00 0.00 0.00 62 1015.6
20260501213229 46 234 5.2 12.2 0.00 0.00 0.00 62 1015.8
20260501212726 46 285 4.3 8.7 0.00 0.00 0.00 63 1015.6
20260501212222 46 251 2.6 8.7 0.00 0.00 0.00 61 1015.6
20260501211719 46 350 5.2 8.7 0.00 0.00 0.00 61 1015.4
20260501211216 47 288 13.0 14.8 0.00 0.00 0.00 60 1015.3
20260501210713 47 48 2.6 7.8 0.00 0.00 0.00 60 1015.5
20260501210209 46 313 4.3 4.3 0.00 0.00 0.00 61 1015.5
20260501205706 46 289 2.6 4.3 0.00 0.00 0.00 61 1015.2
20260501205203 46 251 5.2 10.4 0.00 0.00 0.00 61 1015.4
20260501204700 46 251 3.5 7.8 0.00 0.00 0.00 60 1015.2
20260501204156 47 317 9.6 10.4 0.00 0.00 0.00 59 1015.2
20260501203653 47 255 3.5 8.7 0.00 0.00 0.00 60 1015.2
20260501203150 47 312 6.1 10.4 0.00 0.00 0.00 59 1015.1
20260501202647 46 226 0.0 12.2 0.00 0.00 0.00 59 1015.1
20260501202144 46 356 7.0 10.4 0.00 0.00 0.00 59 1015.1
20260501201641 46 233 3.5 6.1 0.00 0.00 0.00 59 1015.3
20260501201137 46 335 5.2 13.0 0.00 0.00 0.00 59 1015.2
20260501200634 46 269 6.1 8.7 0.00 0.00 0.00 59 1015.3
20260501200132 47 313 7.8 10.4 0.00 0.00 0.00 59 1015.3
20260501195629 47 298 6.1 12.2 0.00 0.00 0.00 59 1015.4
20260501195125 47 259 7.0 12.2 0.00 0.00 0.00 60 1015.2
20260501194621 47 309 11.3 12.2 0.00 0.00 0.00 60 1015.1
20260501194116 47 267 4.3 6.1 0.00 0.00 0.00 61 1015.1
20260501193614 46 251 2.6 6.1 0.00 0.00 0.00 61 1015.1
20260501193112 47 275 3.5 7.8 0.00 0.00 0.00 61 1014.9
20260501192609 47 304 5.2 7.8 0.00 0.00 0.00 61 1015.0
20260501192106 46 295 4.3 7.8 0.00 0.00 0.00 62 1015.0
20260501191604 47 327 3.5 6.1 0.00 0.00 0.00 62 1015.1
20260501191100 47 274 1.7 4.3 0.00 0.00 0.00 61 1015.1
20260501190556 46 240 1.7 7.8 0.00 0.00 0.00 64 1015.2
20260501190052 46 284 1.7 8.7 0.00 0.00 0.00 64 1015.1
20260501185548 46 313 6.1 8.7 0.00 0.00 0.00 65 1015.2
20260501185044 46 267 6.1 12.2 0.00 0.00 0.00 63 1015.2
20260501184540 46 263 4.3 10.4 0.00 0.00 0.00 64 1014.9
20260501184040 47 239 4.3 10.4 0.00 0.00 0.00 63 1014.7
20260501183538 46 257 6.1 10.4 0.00 0.00 0.00 60 1015.0
20260501183034 47 316 7.8 13.0 0.00 0.00 0.00 60 1014.8
20260501182530 47 78 6.1 12.2 0.00 0.00 0.00 60 1014.8
20260501182027 48 321 4.3 12.2 0.00 0.00 0.00 59 1014.7
20260501181525 46 271 3.5 8.7 0.00 0.00 0.00 61 1014.9
20260501181021 47 340 7.8 10.4 0.00 0.00 0.00 60 1014.9
20260501180519 46 274 9.6 12.2 0.00 0.00 0.00 60 1014.8
20260501180015 47 86 4.3 12.2 0.00 0.00 0.00 60 1014.6
20260501175512 48 315 6.1 10.4 0.00 0.00 0.00 56 1014.8
20260501175009 47 267 1.7 7.8 0.00 0.00 0.00 54 1014.6
20260501174506 47 230 2.6 10.4 0.00 0.00 0.00 55 1014.6
20260501174004 48 265 7.0 8.7 0.00 0.00 0.00 57 1014.7
20260501173501 47 242 4.3 10.4 0.00 0.00 0.00 57 1014.7
20260501172956 47 298 10.4 12.2 0.00 0.00 0.00 58 1014.8
20260501172453 47 325 6.1 10.4 0.00 0.00 0.00 57 1014.7
20260501171948 47 149 1.7 10.4 0.00 0.00 0.00 58 1014.6
20260501171444 47 268 4.3 10.4 0.00 0.00 0.00 56 1014.9
20260501170941 47 223 0.0 1.7 0.00 0.00 0.00 56 1014.8
20260501170438 48 241 5.2 10.4 0.00 0.00 0.00 55 1014.8
20260501165936 47 222 4.3 8.7 0.00 0.00 0.00 56 1014.7
20260501165433 48 271 1.7 12.2 0.00 0.00 0.00 58 1014.6
20260501164931 48 337 6.1 12.2 0.00 0.00 0.00 59 1014.7
20260501164428 47 227 0.9 10.4 0.00 0.00 0.00 58 1014.8
20260501163925 47 248 2.6 8.7 0.00 0.00 0.00 58 1014.9
20260501163421 46 104 0.9 10.4 0.00 0.00 0.00 56 1014.8
20260501162918 47 230 0.9 8.7 0.00 0.00 0.00 59 1014.8
20260501162414 47 234 3.5 6.1 0.00 0.00 0.00 60 1014.7
20260501161911 46 236 1.7 8.7 0.00 0.00 0.00 61 1014.7
20260501161409 47 226 5.2 13.0 0.00 0.00 0.00 60 1014.7
20260501160905 47 248 4.3 7.8 0.00 0.00 0.00 61 1014.9